CW5040 Weather Reports


time (UTC)temp
F
wind
direction
speed
knots
gust
knots
rain 1hr
in
rain 24hr
in
rain mn
in
humidity
%
barometer
mb
20260507180333 59 18 0.0 0.0 0.00 0.00 0.00 38 1014.1
20260507175833 59 18 0.0 0.0 0.00 0.00 0.00 40 1014.1
20260507175401 58 18 0.0 0.0 0.00 0.00 0.00 40 1014.1
20260507174859 58 18 0.0 0.0 0.00 0.01 0.00 40 1014.2
20260507174341 58 18 0.0 0.0 0.00 0.01 0.00 39 1014.2
20260507173836 58 18 0.0 0.0 0.00 0.01 0.00 40 1014.2
20260507173347 58 18 0.0 0.0 0.00 0.01 0.00 40 1014.3
20260507172846 58 18 0.0 0.0 0.00 0.01 0.00 41 1014.3
20260507172353 58 18 0.0 0.0 0.00 0.01 0.00 42 1014.3
20260507171849 57 18 0.0 0.0 0.00 0.01 0.00 44 1014.3
20260507171328 57 18 0.0 0.0 0.00 0.01 0.00 45 1014.3
20260507170852 56 18 0.0 0.0 0.00 0.01 0.00 45 1014.3
20260507170354 56 18 0.0 0.0 0.00 0.01 0.00 45 1014.2
20260507165850 56 18 0.0 0.0 0.00 0.01 0.00 46 1014.2
20260507165405 57 18 0.0 0.0 0.00 0.01 0.00 46 1014.2
20260507164839 57 18 0.0 0.0 0.00 0.05 0.00 46 1014.0
20260507164322 57 18 0.0 0.0 0.00 0.05 0.00 43 1014.0
20260507163857 57 18 0.0 0.0 0.00 0.05 0.00 44 1014.0
20260507163355 57 18 0.0 0.0 0.00 0.05 0.00 42 1013.7
20260507162853 58 18 0.0 0.0 0.00 0.05 0.00 42 1013.7
20260507162338 58 18 0.0 0.0 0.00 0.05 0.00 41 1013.7
20260507161901 58 18 0.0 0.0 0.00 0.05 0.00 40 1013.7
20260507161345 59 18 0.0 0.0 0.00 0.05 0.00 40 1013.7
20260507160841 59 18 0.0 0.0 0.00 0.05 0.00 39 1013.7
20260507160336 60 18 0.0 0.0 0.00 0.05 0.00 39 1013.9
20260507155835 60 18 0.0 0.0 0.00 0.05 0.00 39 1013.9
20260507155329 60 18 0.0 0.0 0.00 0.05 0.00 40 1013.9
20260507154854 59 18 0.0 0.0 0.00 0.09 0.00 42 1014.3
20260507154352 57 18 0.0 0.0 0.00 0.09 0.00 50 1014.3
20260507153852 56 18 0.0 0.0 0.00 0.09 0.00 54 1014.3
20260507153331 53 18 0.0 0.0 0.00 0.09 0.00 61 1014.3
20260507152828 51 18 0.0 0.0 0.00 0.09 0.00 65 1014.3
20260507152331 49 18 0.0 0.0 0.00 0.09 0.00 68 1014.3
20260507151846 48 18 0.0 0.0 0.00 0.09 0.00 72 1014.3
20260507151330 47 18 0.0 0.0 0.00 0.09 0.00 74 1014.3
20260507150829 47 18 0.0 0.0 0.00 0.09 0.00 74 1014.3
20260507150326 46 18 0.0 0.0 0.00 0.09 0.00 76 1014.4
20260507145901 46 18 0.0 0.0 0.00 0.09 0.00 76 1014.4
20260507145343 45 18 0.0 0.0 0.00 0.09 0.00 77 1014.4
20260507144838 45 18 0.0 0.0 0.00 0.11 0.00 76 1014.3
20260507144327 45 18 0.0 0.0 0.00 0.11 0.00 76 1014.3
20260507143921 45 18 0.0 0.0 0.00 0.11 0.00 76 1014.3
20260507143358 45 18 0.0 0.0 0.00 0.11 0.00 77 1014.3
20260507142840 44 18 0.0 0.0 0.00 0.11 0.00 77 1014.3
20260507142340 44 18 0.0 0.0 0.00 0.11 0.00 76 1014.3
20260507141838 44 18 0.0 0.0 0.00 0.11 0.00 75 1014.3
20260507141401 44 18 0.0 0.0 0.00 0.11 0.00 76 1014.3
20260507140901 44 18 0.0 0.0 0.00 0.11 0.00 76 1014.3
20260507140400 44 18 0.0 0.0 0.00 0.11 0.00 75 1014.2
20260507135825 43 18 0.0 0.0 0.00 0.11 0.00 74 1014.2
20260507135340 43 18 0.0 0.0 0.00 0.11 0.00 74 1014.2
20260507134836 43 18 0.0 0.0 0.00 0.11 0.00 74 1013.9
20260507134330 43 18 0.0 0.0 0.00 0.11 0.00 73 1013.9
20260507133833 43 18 0.0 0.0 0.00 0.11 0.00 74 1013.9
20260507133333 43 18 0.0 0.0 0.00 0.11 0.00 75 1013.9
20260507132836 42 18 0.0 0.0 0.00 0.11 0.00 78 1013.9
20260507132332 42 18 0.0 0.0 0.00 0.11 0.00 80 1013.9
20260507131832 41 18 0.0 0.0 0.00 0.11 0.00 83 1013.7
20260507131409 40 18 0.0 0.0 0.00 0.11 0.00 84 1013.7
20260507130844 38 18 0.0 0.0 0.00 0.11 0.00 85 1013.7
20260507130326 37 18 0.0 0.0 0.00 0.11 0.00 85 1013.7
20260507125825 36 18 0.0 0.0 0.00 0.11 0.00 85 1013.7
20260507125349 36 18 0.0 0.0 0.00 0.11 0.00 85 1013.7
20260507124830 36 18 0.0 0.0 0.00 0.11 0.00 85 1013.5
20260507124400 36 18 0.0 0.0 0.00 0.11 0.00 85 1013.5
20260507123839 36 18 0.0 0.0 0.00 0.11 0.00 86 1013.5
20260507123333 35 18 0.0 0.0 0.00 0.11 0.00 88 1013.3
20260507122910 34 18 0.0 0.0 0.00 0.11 0.00 90 1013.3
20260507122355 33 18 0.0 0.0 0.00 0.11 0.00 90 1013.3
20260507121852 33 18 0.0 0.0 0.00 0.11 0.00 90 1013.3
20260507121351 32 18 0.0 0.0 0.00 0.11 0.00 90 1013.3
20260507120826 32 18 0.0 0.0 0.00 0.11 0.00 90 1013.3
20260507120332 32 18 0.0 0.0 0.00 0.11 0.00 90 1013.3
20260507115910 32 18 0.0 0.0 0.00 0.11 0.00 90 1013.3
20260507115349 33 18 0.0 0.0 0.00 0.11 0.00 90 1013.3
20260507114847 33 18 0.0 0.0 0.00 0.11 0.00 91 1013.3
20260507114347 32 18 0.0 0.0 0.00 0.11 0.00 91 1013.3
20260507113900 32 18 0.0 0.0 0.00 0.11 0.00 91 1013.3
20260507113357 31 18 0.0 0.0 0.00 0.11 0.00 91 1013.4
20260507112837 31 18 0.0 0.0 0.00 0.11 0.00 90 1013.4
20260507112400 31 18 0.0 0.0 0.00 0.11 0.00 90 1013.4
20260507111835 30 18 0.0 0.0 0.00 0.11 0.00 90 1013.1
20260507111341 30 18 0.0 0.0 0.00 0.11 0.00 89 1013.1
20260507110839 31 18 0.0 0.0 0.00 0.11 0.00 89 1013.1
20260507110352 31 18 0.0 0.0 0.00 0.11 0.00 89 1013.5
20260507105851 31 18 0.0 0.0 0.00 0.11 0.00 89 1013.5
20260507105350 31 18 0.0 0.0 0.00 0.11 0.00 89 1013.5
20260507104833 31 18 0.0 0.0 0.00 0.11 0.00 88 1013.5
20260507104338 31 18 0.0 0.0 0.00 0.11 0.00 89 1013.5
20260507102830 32 18 0.0 0.0 0.00 0.11 0.00 88 1013.7
20260507102341 32 18 0.0 0.0 0.00 0.11 0.00 89 1013.7
20260507100857 32 18 0.0 0.0 0.00 0.11 0.00 89 1013.7
20260507100408 33 18 0.0 0.0 0.00 0.11 0.00 89 1013.6
20260507095846 33 18 0.0 0.0 0.00 0.11 0.00 89 1013.6
20260507095344 33 18 0.0 0.0 0.00 0.11 0.00 89 1013.6
20260507094840 32 18 0.0 0.0 0.00 0.11 0.00 88 1013.7
20260507094332 32 18 0.0 0.0 0.00 0.11 0.00 87 1013.7
20260507093831 33 18 0.0 0.0 0.00 0.11 0.00 88 1013.7
20260507093331 33 18 0.0 0.0 0.00 0.11 0.00 88 1013.8
20260507092827 33 18 0.0 0.0 0.00 0.11 0.00 88 1013.8
20260507092330 33 18 0.0 0.0 0.00 0.11 0.00 88 1013.8
20260507091842 33 18 0.0 0.0 0.00 0.11 0.00 88 1013.7
20260507091359 33 18 0.0 0.0 0.00 0.11 0.00 88 1013.7
20260507090838 33 18 0.0 0.0 0.00 0.11 0.00 88 1013.7
20260507090338 34 18 0.0 0.0 0.00 0.11 0.00 88 1013.7
20260507085838 34 18 0.0 0.0 0.00 0.11 0.00 88 1013.7
20260507085356 34 18 0.0 0.0 0.00 0.11 0.00 89 1013.7
20260507084852 33 18 0.0 0.0 0.00 0.11 0.00 89 1013.8
20260507084400 33 18 0.0 0.0 0.00 0.11 0.00 89 1013.8
20260507083854 32 18 0.0 0.0 0.00 0.11 0.00 89 1013.8
20260507083334 32 18 0.0 0.0 0.00 0.11 0.00 88 1013.9
20260507082831 32 18 0.0 0.0 0.00 0.11 0.00 88 1013.9
20260507082329 32 18 0.0 0.0 0.00 0.11 0.00 88 1013.9
20260507081825 32 18 0.0 0.0 0.00 0.11 0.00 87 1014.2
20260507081336 32 18 0.0 0.0 0.00 0.11 0.00 87 1014.2
20260507080908 33 18 0.0 0.0 0.00 0.11 0.00 86 1014.2
20260507080348 33 18 0.0 0.0 0.00 0.11 0.00 87 1014.3
20260507075848 33 18 0.0 0.0 0.00 0.11 0.00 87 1014.3
20260507075327 33 18 0.0 0.0 0.00 0.11 0.00 87 1014.3
20260507074827 33 18 0.0 0.0 0.00 0.11 0.00 87 1014.3
20260507074330 33 18 0.0 0.0 0.00 0.11 0.00 86 1014.3
20260507073851 34 18 0.0 0.0 0.00 0.11 0.00 86 1014.3
20260507073330 34 18 0.0 0.0 0.00 0.11 0.00 87 1014.6
20260507072829 34 18 0.0 0.0 0.00 0.11 0.00 87 1014.6
20260507072403 34 18 0.0 0.0 0.00 0.11 0.00 88 1014.6
20260507071822 34 18 0.0 0.0 0.00 0.11 0.00 88 1014.9
20260507071330 34 18 0.0 0.0 0.00 0.11 0.00 88 1014.9
20260507070830 34 18 0.0 0.0 0.00 0.11 0.00 88 1014.9
20260507070324 33 18 0.0 0.0 0.00 0.11 0.00 88 1014.9
20260507065830 33 18 0.0 0.0 0.00 0.11 0.00 88 1014.9
20260507065405 33 18 0.0 0.0 0.00 0.11 0.00 88 1014.9
20260507064840 33 18 0.0 0.0 0.00 0.11 0.11 88 1015.4
20260507064400 33 18 0.0 0.0 0.00 0.11 0.11 88 1015.4
20260507063838 33 18 0.0 0.0 0.00 0.11 0.11 87 1015.4
20260507063342 33 18 0.0 0.0 0.00 0.11 0.11 87 1015.5
20260507062840 34 18 0.0 0.0 0.00 0.11 0.11 87 1015.5
20260507062355 34 18 0.0 0.0 0.00 0.11 0.11 87 1015.5
20260507061857 34 18 0.0 0.0 0.00 0.11 0.11 86 1015.5
20260507061401 35 18 0.0 0.0 0.00 0.11 0.11 86 1015.5
20260507060844 35 18 0.0 0.0 0.00 0.11 0.11 87 1015.5
20260507060350 35 18 0.0 0.0 0.00 0.11 0.11 88 1015.5
20260507055842 34 18 0.0 0.0 0.00 0.11 0.11 88 1015.5
20260507055335 34 18 0.0 0.0 0.00 0.11 0.11 88 1015.5
20260507054850 34 18 0.0 0.0 0.00 0.11 0.11 87 1015.5
20260507054335 34 18 0.0 0.0 0.00 0.11 0.11 87 1015.5
20260507053847 34 18 0.0 0.0 0.00 0.11 0.11 87 1015.5
20260507053346 34 18 0.0 0.0 0.00 0.11 0.11 86 1015.5
20260507052827 35 18 0.0 0.0 0.00 0.11 0.11 86 1015.5
20260507052328 35 18 0.0 0.0 0.00 0.11 0.11 86 1015.5
20260507051831 35 18 0.0 0.0 0.00 0.11 0.11 86 1015.6
20260507051402 35 18 0.0 0.0 0.00 0.11 0.11 86 1015.6
20260507050839 35 18 0.0 0.0 0.00 0.11 0.11 85 1015.6
20260507050356 36 18 0.0 0.0 0.00 0.11 0.11 85 1015.8
20260507045834 36 18 0.0 0.0 0.00 0.11 0.11 84 1015.8
20260507045329 36 18 0.0 0.0 0.00 0.11 0.11 84 1015.8
20260507044826 36 18 0.0 0.0 0.00 0.11 0.11 84 1015.9
20260507044326 36 18 0.0 0.0 0.00 0.11 0.11 83 1015.9
20260507043856 36 18 0.0 0.0 0.00 0.11 0.11 83 1015.9
20260507043334 36 18 0.0 0.0 0.00 0.11 0.11 83 1016.1
20260507042833 36 18 0.0 0.0 0.00 0.11 0.11 83 1016.1
20260507042358 36 18 0.0 0.0 0.00 0.11 0.11 83 1016.1
20260507041837 36 18 0.0 0.0 0.00 0.11 0.11 83 1016.2
20260507041336 37 18 0.0 0.0 0.00 0.11 0.11 82 1016.2
20260507040842 37 18 0.0 0.0 0.00 0.11 0.11 82 1016.2
20260507040352 37 18 0.0 0.0 0.00 0.11 0.11 81 1016.3
20260507035847 37 18 0.0 0.0 0.00 0.11 0.11 81 1016.3
20260507035347 37 18 0.0 0.0 0.00 0.11 0.11 81 1016.3
20260507034845 37 18 0.0 0.0 0.00 0.11 0.11 80 1016.2
20260507034345 37 18 0.0 0.0 0.00 0.11 0.11 80 1016.2
20260507033845 38 18 0.0 0.0 0.00 0.11 0.11 79 1016.2
20260507033355 38 18 0.0 0.0 0.00 0.11 0.11 79 1016.2
20260507032858 38 18 0.0 0.0 0.00 0.11 0.11 78 1016.2
20260507032358 38 18 0.0 0.0 0.00 0.11 0.11 78 1016.2
20260507031859 38 18 0.0 0.0 0.00 0.11 0.11 78 1016.2
20260507031344 38 18 0.0 0.0 0.00 0.11 0.11 78 1016.2
20260507030843 38 18 0.0 0.0 0.00 0.11 0.11 78 1016.2
20260507030339 38 18 0.0 0.0 0.00 0.11 0.11 77 1016.2
20260507025839 39 18 0.0 0.0 0.00 0.11 0.11 77 1016.2
20260507025338 39 18 0.0 0.0 0.00 0.11 0.11 76 1016.2
20260507024853 39 18 0.0 0.0 0.00 0.11 0.11 76 1016.2
20260507024350 39 18 0.0 0.0 0.00 0.11 0.11 76 1016.2
20260507023855 39 18 0.0 0.0 0.00 0.11 0.11 75 1016.2
20260507023330 40 18 0.0 0.0 0.00 0.11 0.11 75 1016.2
20260507022826 40 18 0.0 0.0 0.00 0.11 0.11 74 1016.2
20260507022330 40 18 0.0 0.0 0.00 0.11 0.11 72 1016.2
20260507021834 40 18 0.0 0.0 0.00 0.11 0.11 71 1016.2
20260507021404 41 18 0.0 0.0 0.00 0.11 0.11 70 1016.2
20260507020840 41 18 0.0 0.0 0.00 0.11 0.11 70 1016.2
20260507020352 41 18 0.0 0.0 0.00 0.11 0.11 69 1016.3
20260507015849 42 18 0.0 0.0 0.00 0.11 0.11 68 1016.3
20260507015350 42 18 0.0 0.0 0.00 0.11 0.11 67 1016.3
20260507014825 42 18 0.0 0.0 0.00 0.12 0.11 66 1016.5
20260507014326 43 18 0.0 0.0 0.00 0.12 0.11 65 1016.5
20260507013825 43 18 0.0 0.0 0.00 0.12 0.11 63 1016.5
20260507013418 43 18 0.0 0.0 0.00 0.12 0.11 62 1016.5
20260507012850 44 18 0.0 0.0 0.00 0.12 0.11 62 1016.5
20260507012325 44 18 0.0 0.0 0.00 0.12 0.11 61 1016.5
20260507011842 44 18 0.0 0.0 0.00 0.12 0.11 59 1016.2
20260507011338 45 18 0.0 0.0 0.00 0.12 0.11 59 1016.2
20260507010340 45 18 0.0 0.0 0.00 0.12 0.11 57 1016.2
20260507005840 45 18 0.0 0.0 0.00 0.12 0.11 56 1016.2
20260507005333 45 18 0.0 0.0 0.00 0.12 0.11 56 1016.2
20260507004831 45 18 0.0 0.0 0.00 0.13 0.11 56 1016.3
20260507004331 45 18 0.0 0.0 0.00 0.13 0.11 56 1016.3
20260507003833 46 18 0.0 0.0 0.00 0.13 0.11 55 1016.3
20260507003348 46 18 0.0 0.0 0.00 0.13 0.11 54 1016.4
20260507002847 46 18 0.0 0.0 0.00 0.13 0.11 53 1016.4
20260507002347 46 18 0.0 0.0 0.00 0.13 0.11 54 1016.4
20260507001827 46 18 0.0 0.0 0.00 0.13 0.11 54 1016.7
20260507001345 46 18 0.0 0.0 0.00 0.13 0.11 56 1016.7
20260507000827 46 18 0.0 0.0 0.00 0.13 0.11 54 1016.7
20260507000344 46 18 0.0 0.0 0.00 0.13 0.11 53 1016.7
20260506235833 46 18 0.0 0.0 0.00 0.13 0.11 54 1016.7
20260506235331 46 18 0.0 0.0 0.00 0.13 0.11 54 1016.7
20260506234831 46 18 0.0 0.0 0.00 0.16 0.11 54 1016.7
20260506234406 46 18 0.0 0.0 0.00 0.16 0.11 54 1016.7
20260506233840 46 18 0.0 0.0 0.00 0.16 0.11 53 1016.7
20260506233402 46 18 0.0 0.0 0.00 0.16 0.11 54 1016.7
20260506232823 46 18 0.0 0.0 0.00 0.16 0.11 51 1016.7
20260506232326 46 18 0.0 0.0 0.00 0.16 0.11 53 1016.7
20260506231825 46 18 0.0 0.0 0.00 0.16 0.11 53 1016.6
20260506231356 46 18 0.0 0.0 0.00 0.16 0.11 54 1016.6
20260506230853 46 18 0.0 0.0 0.00 0.16 0.11 55 1016.6
20260506230330 46 18 0.0 0.0 0.00 0.16 0.11 55 1016.6
20260506225846 46 18 0.0 0.0 0.00 0.16 0.11 55 1016.6
20260506225329 46 18 0.0 0.0 0.00 0.16 0.11 54 1016.6
20260506224826 46 18 0.0 0.0 0.00 0.19 0.11 52 1016.7
20260506224418 46 18 0.0 0.0 0.00 0.19 0.11 57 1016.7
20260506223856 46 18 0.0 0.0 0.00 0.19 0.11 57 1016.7
20260506223334 45 18 0.0 0.0 0.00 0.19 0.11 59 1016.8
20260506222834 45 18 0.0 0.0 0.00 0.19 0.11 59 1016.8
20260506222333 45 18 0.0 0.0 0.00 0.19 0.11 60 1016.8
20260506221831 45 18 0.0 0.0 0.00 0.19 0.11 61 1017.2
20260506221330 45 18 0.0 0.0 0.00 0.19 0.11 58 1017.2
20260506220830 45 18 0.0 0.0 0.00 0.19 0.11 58 1017.2
20260506220330 45 18 0.0 0.0 0.00 0.19 0.11 61 1017.3
20260506215833 45 18 0.0 0.0 0.00 0.19 0.11 59 1017.3
20260506215410 45 18 0.0 0.0 0.00 0.19 0.11 57 1017.3
20260506214834 44 18 0.0 0.0 0.00 0.21 0.11 59 1017.4
20260506214332 44 18 0.0 0.0 0.00 0.21 0.11 57 1017.4
20260506213830 44 18 0.0 0.0 0.00 0.21 0.11 56 1017.4
20260506213353 44 18 0.0 0.0 0.00 0.21 0.11 56 1017.7
20260506212831 44 18 0.0 0.0 0.00 0.21 0.11 57 1017.7
20260506212336 44 18 0.0 0.0 0.00 0.21 0.11 54 1017.7
20260506211853 44 18 0.0 0.0 0.00 0.21 0.11 56 1017.9
20260506211349 44 18 0.0 0.0 0.00 0.21 0.11 54 1017.9
20260506210842 44 18 0.0 0.0 0.00 0.21 0.11 53 1017.9
20260506210338 44 18 0.0 0.0 0.00 0.21 0.11 52 1018.0
20260506205838 44 18 0.0 0.0 0.00 0.21 0.11 55 1018.0
20260506205353 44 18 0.0 0.0 0.00 0.21 0.11 55 1018.0
20260506204847 44 18 0.0 0.0 0.00 0.26 0.11 56 1018.3
20260506204326 43 18 0.0 0.0 0.00 0.26 0.11 54 1018.3
20260506203845 43 18 0.0 0.0 0.00 0.26 0.11 55 1018.3
20260506203342 43 18 0.0 0.0 0.00 0.26 0.11 55 1018.5
20260506202844 43 18 0.0 0.0 0.00 0.26 0.11 57 1018.5
20260506202356 43 18 0.0 0.0 0.00 0.26 0.11 56 1018.5
20260506201854 43 18 0.0 0.0 0.00 0.26 0.11 62 1018.5
20260506201358 43 18 0.0 0.0 0.00 0.26 0.11 61 1018.5
20260506200853 42 18 0.0 0.0 0.00 0.26 0.11 63 1018.5
20260506200333 42 18 0.0 0.0 0.00 0.26 0.11 64 1018.6
20260506195827 41 18 0.0 0.0 0.00 0.26 0.11 64 1018.6
20260506195344 41 18 0.0 0.0 0.00 0.26 0.11 65 1018.6
20260506194844 41 18 0.0 0.0 0.00 0.30 0.11 65 1018.7
20260506194401 41 18 0.0 0.0 0.00 0.30 0.11 67 1018.7
20260506193831 41 18 0.0 0.0 0.00 0.30 0.11 69 1018.7
20260506193327 41 18 0.0 0.0 0.00 0.30 0.11 66 1019.0
20260506192827 41 18 0.0 0.0 0.00 0.30 0.11 70 1019.0
20260506192337 40 18 0.0 0.0 0.00 0.30 0.11 70 1019.0
20260506191835 40 18 0.0 0.0 0.00 0.30 0.11 69 1019.1
20260506191336 40 18 0.0 0.0 0.00 0.30 0.11 68 1019.1
20260506190827 40 18 0.0 0.0 0.00 0.30 0.11 70 1019.1
20260506190339 40 18 0.0 0.0 0.00 0.30 0.11 70 1019.1
20260506185837 40 18 0.0 0.0 0.00 0.30 0.11 73 1019.1
20260506185340 39 18 0.0 0.0 0.00 0.30 0.11 74 1019.1
20260506184915 39 18 0.0 0.0 0.00 0.37 0.11 73 1019.2
20260506184326 39 18 0.0 0.0 0.00 0.37 0.11 73 1019.2
20260506183838 39 18 0.0 0.0 0.00 0.37 0.11 74 1019.2
20260506183336 39 18 0.0 0.0 0.00 0.37 0.11 74 1019.2
20260506182837 39 18 0.0 0.0 0.00 0.37 0.11 75 1019.2
20260506182340 39 18 0.0 0.0 0.00 0.37 0.11 76 1019.2
20260506181856 39 18 0.0 0.0 0.00 0.37 0.11 78 1019.3
20260506181335 39 18 0.0 0.0 0.00 0.37 0.11 79 1019.3
20260506180848 38 18 0.0 0.0 0.00 0.37 0.11 78 1019.3